TimeEDT,TemperatureF,Dew PointF,Humidity,Sea Level PressureIn,VisibilityMPH,Wind Direction,Wind SpeedMPH,Gust SpeedMPH,PrecipitationIn,Events,Conditions,WindDirDegrees,DateUTC
12:15 AM,62.2,54.7,76,30.11,7.0,SW,6.9,-,N/A,,Mostly Cloudy,230,2012-10-05 04:15:00
12:35 AM,62.2,54.5,76,30.12,7.0,WSW,8.1,-,N/A,,Mostly Cloudy,250,2012-10-05 04:35:00
12:55 AM,62.8,54.5,74,30.12,10.0,West,9.2,-,N/A,,Overcast,280,2012-10-05 04:55:00
1:15 AM,63.0,53.6,71,30.11,7.0,WNW,8.1,-,N/A,,Overcast,290,2012-10-05 05:15:00
1:35 AM,61.3,52.0,71,30.09,7.0,West,4.6,-,N/A,,Scattered Clouds,280,2012-10-05 05:35:00
1:55 AM,59.2,51.4,75,30.12,7.0,WNW,12.7,-,N/A,,Scattered Clouds,300,2012-10-05 05:55:00
2:15 AM,59.4,52.0,77,30.12,7.0,West,9.2,-,N/A,,Scattered Clouds,280,2012-10-05 06:15:00
2:35 AM,57.7,52.2,82,30.12,10.0,WNW,11.5,-,N/A,,Clear,290,2012-10-05 06:35:00
3:15 AM,55.8,51.4,85,30.13,7.0,WNW,13.8,-,N/A,,Mostly Cloudy,290,2012-10-05 07:15:00
3:35 AM,55.0,50.7,85,30.12,7.0,West,13.8,-,N/A,,Overcast,280,2012-10-05 07:35:00
3:55 AM,54.5,50.9,88,30.12,7.0,West,11.5,-,N/A,,Overcast,280,2012-10-05 07:55:00
4:15 AM,54.0,49.6,85,30.13,5.0,WNW,11.5,-,N/A,,Haze,290,2012-10-05 08:15:00
4:35 AM,53.1,46.4,78,30.12,10.0,WNW,9.2,-,N/A,,Clear,300,2012-10-05 08:35:00
4:55 AM,52.7,45.1,75,30.14,7.0,WNW,10.4,-,N/A,,Mostly Cloudy,300,2012-10-05 08:55:00
5:15 AM,52.7,45.9,78,30.16,7.0,WNW,13.8,-,N/A,,Overcast,300,2012-10-05 09:15:00
5:35 AM,52.2,46.6,81,30.15,7.0,NW,12.7,-,N/A,Rain,Light Rain,310,2012-10-05 09:35:00
6:15 AM,51.1,46.4,84,30.14,10.0,NW,4.6,-,N/A,,Overcast,320,2012-10-05 10:15:00
6:35 AM,51.3,46.2,83,30.15,10.0,WNW,5.8,-,N/A,,Overcast,300,2012-10-05 10:35:00
6:55 AM,50.9,46.4,85,30.15,7.0,Calm,Calm,-,0.01,Rain,Rain,0,2012-10-05 10:55:00
7:15 AM,50.4,47.1,89,30.14,4.0,NW,6.9,-,0.05,Rain,Rain,320,2012-10-05 11:15:00
7:35 AM,49.6,47.3,92,30.14,7.0,NW,4.6,-,0.07,Rain,Light Rain,310,2012-10-05 11:35:00
7:55 AM,49.5,47.5,93,30.15,5.0,WNW,5.8,-,0.07,,Overcast,290,2012-10-05 11:55:00
8:15 AM,49.5,47.5,93,30.16,7.0,West,8.1,-,N/A,,Overcast,280,2012-10-05 12:15:00
8:35 AM,48.9,46.6,92,30.16,7.0,WNW,8.1,-,N/A,Rain,Light Rain,300,2012-10-05 12:35:00
8:55 AM,48.2,45.5,90,30.14,5.0,NW,3.5,-,0.01,Rain,Light Rain,310,2012-10-05 12:55:00
9:15 AM,47.7,45.3,92,30.14,7.0,NW,8.1,-,0.02,Rain,Light Rain,310,2012-10-05 13:15:00
9:35 AM,46.9,44.2,90,30.14,7.0,WNW,4.6,-,0.02,,Overcast,290,2012-10-05 13:35:00
9:55 AM,47.3,44.8,91,30.14,7.0,WNW,6.9,-,0.02,,Overcast,290,2012-10-05 13:55:00
10:15 AM,47.3,44.8,91,30.15,7.0,West,8.1,-,N/A,,Overcast,270,2012-10-05 14:15:00
10:35 AM,46.6,44.1,91,30.16,4.0,West,9.2,-,0.01,Rain,Light Rain,270,2012-10-05 14:35:00
10:55 AM,46.0,43.5,91,30.16,3.0,WNW,9.2,-,0.04,Rain,Light Rain,290,2012-10-05 14:55:00
11:15 AM,45.9,43.7,92,30.16,5.0,West,5.8,-,0.02,Rain,Light Rain,280,2012-10-05 15:15:00
11:35 AM,46.2,44.2,93,30.16,4.0,West,8.1,-,0.06,Rain,Rain,280,2012-10-05 15:35:00
11:55 AM,46.0,44.2,93,30.16,4.0,WNW,11.5,-,0.10,Rain,Light Rain,290,2012-10-05 15:55:00
12:15 PM,45.0,42.8,92,30.15,4.0,WNW,9.2,-,0.01,Rain,Light Rain,290,2012-10-05 16:15:00
12:35 PM,44.6,42.1,91,30.14,5.0,NW,8.1,-,0.04,Rain,Rain,310,2012-10-05 16:35:00
12:55 PM,44.4,42.1,91,30.14,7.0,West,5.8,-,0.07,Rain,Light Rain,270,2012-10-05 16:55:00
1:15 PM,45.0,42.6,91,30.15,7.0,West,8.1,-,N/A,,Overcast,280,2012-10-05 17:15:00
1:35 PM,45.5,43.0,91,30.14,10.0,WNW,5.8,-,N/A,,Overcast,290,2012-10-05 17:35:00
1:55 PM,45.7,43.2,91,30.12,7.0,West,5.8,-,N/A,,Overcast,280,2012-10-05 17:55:00
2:15 PM,45.9,43.5,92,30.09,5.0,WNW,5.8,-,N/A,,Overcast,290,2012-10-05 18:15:00
2:35 PM,46.4,43.7,90,30.12,10.0,West,8.1,-,N/A,,Overcast,270,2012-10-05 18:35:00
2:55 PM,46.2,44.2,93,30.11,5.0,West,6.9,-,N/A,,Overcast,280,2012-10-05 18:55:00
3:15 PM,45.5,44.1,95,30.10,7.0,WNW,10.4,-,N/A,,Overcast,300,2012-10-05 19:15:00
3:35 PM,45.0,42.4,91,30.10,5.0,West,5.8,-,0.01,Rain,Light Rain,270,2012-10-05 19:35:00
4:15 PM,45.1,41.7,88,30.11,3.0,WNW,6.9,-,N/A,,Overcast,300,2012-10-05 20:15:00
4:35 PM,45.0,41.9,89,30.10,7.0,NW,10.4,-,N/A,,Overcast,310,2012-10-05 20:35:00
4:55 PM,44.1,40.3,87,30.08,10.0,NW,8.1,-,N/A,,Overcast,310,2012-10-05 20:55:00
5:15 PM,43.3,39.9,88,30.07,10.0,WNW,3.5,-,N/A,,Overcast,300,2012-10-05 21:15:00
5:35 PM,43.3,40.6,90,30.07,5.0,Calm,Calm,-,N/A,,Overcast,0,2012-10-05 21:35:00
5:55 PM,43.5,41.0,91,30.08,5.0,NW,5.8,-,0.01,Rain,Light Rain,310,2012-10-05 21:55:00
6:15 PM,43.7,41.4,91,30.09,5.0,West,11.5,-,N/A,Rain,Light Rain,280,2012-10-05 22:15:00
6:35 PM,43.0,40.6,91,30.07,4.0,NW,8.1,-,0.02,Rain,Light Rain,320,2012-10-05 22:35:00
6:55 PM,42.8,40.8,93,30.09,2.5,NW,8.1,-,0.06,Rain,Rain,310,2012-10-05 22:55:00
7:15 PM,42.6,40.8,93,30.09,2.5,NW,6.9,23.0,0.03,Rain,Rain,310,2012-10-05 23:15:00
7:35 PM,41.9,39.9,93,30.07,5.0,NW,10.4,-,0.10,Rain,Light Rain,320,2012-10-05 23:35:00
8:15 PM,41.5,39.6,93,30.12,7.0,WNW,11.5,17.3,0.02,Rain,Rain,300,2012-10-06 00:15:00
8:35 PM,41.2,38.8,91,30.10,4.0,WNW,9.2,-,0.10,Rain,Light Rain,300,2012-10-06 00:35:00
9:15 PM,41.0,39.2,93,30.10,7.0,NW,9.2,-,N/A,Rain,Light Rain,310,2012-10-06 01:15:00
9:35 PM,41.0,39.6,95,30.10,5.0,WNW,10.4,-,0.01,Rain,Rain,300,2012-10-06 01:35:00
9:55 PM,40.8,39.0,93,30.11,4.0,WNW,10.4,17.3,0.06,Rain,Rain,300,2012-10-06 01:55:00
10:15 PM,40.3,38.5,93,30.09,4.0,WNW,9.2,-,0.07,Rain,Light Rain,290,2012-10-06 02:15:00
10:35 PM,40.3,38.7,94,30.07,5.0,WNW,3.5,-,0.11,Rain,Light Rain,290,2012-10-06 02:35:00
10:55 PM,40.5,38.8,94,30.06,10.0,NW,6.9,-,0.11,,Overcast,310,2012-10-06 02:55:00
11:15 PM,40.8,39.2,94,30.08,10.0,West,9.2,-,N/A,,Overcast,280,2012-10-06 03:15:00
11:35 PM,40.8,39.0,93,30.08,10.0,West,5.8,-,N/A,,Overcast,280,2012-10-06 03:35:00
11:55 PM,40.8,39.0,93,30.07,10.0,WNW,8.1,-,N/A,,Overcast,290,2012-10-06 03:55:00